Погода в Палмерстон-Норт

Новая Зеландия     40°21′30″S   175°36′40″E
темп.,
°C
ветер,
м/с
пор.,
м/с
влажн.,
%
обл.,
%
осадки,
мм/ч
давл.,
гПа
погр.,
м
12 августа, пт
пт1200:00+4вюв128990 0.0 102360
03:00+4юв129264 0.0 102255
06:00+3ю11925 0.0 102329
09:00+5ссв11835 0.0 1024163
12:00+10юз12607 0.0 10231054
15:00+10зюз236014 0.0 10211198
18:00+5з22925 0.0 102216
21:00+3с1195100 0.0 102421
13 августа, сб
сб1300:00+5ссв128663 0.0 102452
03:00+2ссв01954 0.0 102410
06:00+1ссв11966 0.0 102510
09:00+5с118225 0.0 1027177
12:00+10юз12626 0.0 1026990
15:00+10зюз236143 0.0 10251157
18:00+5з11897 0.0 102711
21:00+3св11943 0.0 102815
14 августа, вс
вс1400:00+2ссв11960 0.0 102819
03:00+1ссв11960 0.0 102914
06:00+1ссв22940 0.0 102923
09:00+5с12730 0.0 1030145
12:00+11зсз24540 0.0 1028775
15:00+11з46570 0.0 1026791
18:00+6сз22910 0.0 102635
21:00+5ссз38976 0.0 1028158
15 августа, пн
пн1500:00+3ссз29972 0.0 1028188
03:00+3с299718 0.0 1028174
06:00+3с279338 0.0 1028144
09:00+6с3680100 0.0 1029178
12:00+12сз2463100 0.0 1028862
15:00+12зсз2465100 0.0 1026902
18:00+9всв1181100 0.0 102610
21:00+7св2289100 0.0 102631
16 августа, вт
вт1600:00+8всв1177100 0.0 102617
03:00+7св1181100 0.0 102514
06:00+9св2782100 0.0 1024172
09:00+12ссв298162 0.0 1023370
12:00+16ссз51770100 0.1 10231717
15:00+15ссз51385100 0.5 10201084
18:00+13ссв2693100 1.9 1019182
21:00+12ссз21094100 2.1 1021457